Regional Weather Roundup
Issued by NWS

Home | Current Version | Previous Version | Text Only | Print | Product List | Glossary Off
Versions: 1 2 3 4 5 6 7 8 9 10 11 12 13 14 15 16 17 18 19 20 21 22 23 24 25 26 27 28 29 30 31 32 33 34 35 36 37 38 39 40 41 42 43 44 45 46 47 48 49 50

185
ASUS43 KLSX 251457
RWRMO

WEATHER SUMMARY FOR MISSOURI
NATIONAL WEATHER SERVICE SPRINGFIELD MO
1000 AM CDT WED MAY 25 2016

NOTE: "FAIR" INDICATES FEW OR NO CLOUDS BELOW 12,000 FEET WITH NO
       SIGNIFICANT WEATHER AND/OR OBSTRUCTIONS TO VISIBILITY.
       CURRENT SKY AND/OR WEATHER CONDITIONS ARE NOT AVAILABLE FOR
       CHILLICOTHE AND FARMINGTON.

MOZ001>031-035>038-043-044-053-054-251600-
...NORTHERN AND WESTERN MISSOURI...

CITY           SKY/WX    TMP DP  RH WIND       PRES   REMARKS
KANSAS CTY INT CLOUDY    70  61  73 NE14      29.93R
LEE`S SUMMIT   CLOUDY    69  61  75 N10       29.94R
ST JOSEPH      CLOUDY    69  61  75 NE8       29.90F
CHILLICOTHE      N/A     73  63  70 CALM      29.97R

$$
MOZ066>068-077>081-088>096-101>105-251600-
...SOUTHWEST MISSOURI...

CITY           SKY/WX    TMP DP  RH WIND       PRES   REMARKS
SPRINGFIELD    LGT RAIN  64  59  83 SW12      30.04F
JOPLIN         CLOUDY    68  57  68 S15G33    29.88F
BRANSON        TSTM      64  64 100 CALM      30.13R FOG

$$
MOZ032>034-039>042-045>050-055>058-069>072-251600-
...CENTRAL MISSOURI...

CITY           SKY/WX    TMP DP  RH WIND       PRES   REMARKS
COLUMBIA       NOT AVBL
JEFFERSON CITY PTSUNNY   69  65  86 CALM      29.93F
ROLLA          CLOUDY    69  65  86 S13       29.98R
SEDALIA        CLOUDY    72  63  73 SE8       29.91R
WARRENSBURG    CLOUDY    68  63  83 NE5       29.89R

$$
MOZ051-052-059>065-251600-
...EAST CENTRAL MISSOURI...

CITY           SKY/WX    TMP DP  RH WIND       PRES   REMARKS
ST LOUIS INTL  CLOUDY    72  64  76 S7        30.01S

$$
MOZ072>076-082>087-097>100-106>115-251600-
...SOUTH CENTRAL AND SOUTHEAST MISSOURI...

CITY           SKY/WX    TMP DP  RH WIND       PRES   REMARKS
CAPE GIRARDEAU LGT RAIN  69  65  86 S7        30.07R
POPLAR BLUFF   CLOUDY    71  65  81 SW10      30.06S
WEST PLAINS    CLOUDY    66  62  87 S8G17     30.11R

$$



USA.gov is the U.S. government's official web portal to all federal, state and local government web resources and services.